De Queen, AR

10:01 PM CDT on October 17, 2017 (GMT -0500)
Helms Sevier County

Weather History for KDEQ - December, 2013

Change the Weather History Date:

Friday, December 13, 2013

  Actual Average Record
Temperature  
Mean Temperature 36 °F 43 °F  
Max Temperature 40 °F 55 °F 78 °F (1948)
Min Temperature 31 °F 30 °F 14 °F (1989)
Degree Days  
Heating Degree Days 29 22  
Month to date heating degree days 306 271  
Since 1 July heating degree days 919 797  
Cooling Degree Days 0 0  
Month to date cooling degree days 0 0  
Year to date cooling degree days 2029 1941  
Moisture  
Dew Point 35 °F    
Average Humidity 88    
Maximum Humidity 100    
Minimum Humidity 75    
Precipitation  
Precipitation 0.20 in 0.13 in 2.96 in (2015)
Month to date precipitation 0.80 1.60  
Year to date precipitation 33.59 46.23  
Snow  
Snow 0.00 in - - ()
Month to date snowfall T  
Since 1 July snowfall 0.1  
Snow Depth 0.00 in    
Sea Level Pressure  
Sea Level Pressure 30.04 in    
Wind  
Wind Speed 3 mph (East)    
Max Wind Speed 9 mph    
Max Gust Speed 12 mph    
Visibility 4 miles    
Events Rain , Snow    
T = Trace of Precipitation, MM = Missing Value Source: NWS Daily Summary

Daily Weather History Graph

Daily Weather History Graph

Search for Another Location

Airport or City:

Trip Planner

Search our weather history database for the weather conditions in past years. The results will help you decide how hot, cold, wet, or windy it might be!

Date:

Astronomy

Dec. 13, 2013 Rise Set
Actual Time 7:14 AM CST 5:09 PM CST
Civil Twilight 6:46 AM CST 5:37 PM CST
Nautical Twilight 6:15 AM CST 6:08 PM CST
Astronomical Twilight 5:45 AM CST 6:38 PM CST
Moon 2:46 PM CST (12/13) 3:44 AM CST (12/13)
Length of Visible Light 10h 50m
Length of Day
9h 54m
Waxing Gibbous, 88% of the Moon is Illuminated
Dec 13
Waxing Gibbous
Dec 17
Full
Dec 25
Last Quarter
Jan 1
New
Jan 7
First Quarter

Hourly Weather History & Observations

Time (CST) Temp. Windchill Dew Point Humidity Pressure Visibility Wind Dir Wind Speed Gust Speed Precip Events Conditions
12:53 AM 32.0 °F 28.7 °F 28.9 °F 88% 30.33 in 9.0 mi East 3.5 mph - N/A   Clear
1:53 AM 34.0 °F - 30.0 °F 85% 30.32 in 10.0 mi Calm Calm - N/A   Clear
2:53 AM 36.0 °F 33.3 °F 28.9 °F 76% 30.27 in 10.0 mi NE 3.5 mph - N/A   Mostly Cloudy
3:53 AM 35.1 °F 32.2 °F 28.9 °F 78% 30.27 in 10.0 mi ESE 3.5 mph - N/A   Clear
4:53 AM 33.1 °F - 27.0 °F 78% 30.25 in 10.0 mi Calm Calm - N/A   Clear
5:53 AM 34.0 °F - 30.0 °F 85% 30.26 in 10.0 mi Calm Calm - N/A   Clear
6:53 AM 34.0 °F - 28.9 °F 82% 30.24 in 10.0 mi Calm Calm - N/A   Clear
7:53 AM 35.1 °F 32.2 °F 28.9 °F 78% 30.22 in 10.0 mi ESE 3.5 mph - N/A   Clear
8:53 AM 39.0 °F 35.7 °F 28.9 °F 67% 30.19 in 9.0 mi East 4.6 mph - 0.00 in   Unknown
9:53 AM 39.0 °F 33.4 °F 28.9 °F 67% 30.15 in 8.0 mi ESE 8.1 mph - 0.00 in Rain Light Rain
10:53 AM 39.0 °F 36.8 °F 30.9 °F 73% 30.17 in 5.0 mi ESE 3.5 mph - 0.00 in Rain Light Rain
11:04 AM 37.9 °F - 30.9 °F 76% 30.17 in 1.8 mi Calm Calm - 0.03 in Rain Rain
11:21 AM 37.9 °F - 33.1 °F 83% 30.16 in 2.5 mi Calm Calm - 0.04 in Rain Light Rain
11:28 AM 37.9 °F 35.5 °F 33.1 °F 83% 30.17 in 3.0 mi SSE 3.5 mph - 0.04 in Rain Light Rain
11:39 AM 37.9 °F 35.5 °F 34.0 °F 86% 30.16 in 2.5 mi SSE 3.5 mph - 0.04 in Rain Light Rain
11:53 AM 37.0 °F 34.5 °F 34.0 °F 89% 30.15 in 1.8 mi South 3.5 mph - 0.04 in Snow Light Snow
12:04 PM 37.0 °F 33.3 °F 34.0 °F 89% 30.13 in 2.5 mi ESE 4.6 mph - 0.00 in Rain Light Rain
12:23 PM 37.0 °F 34.5 °F 35.1 °F 93% 30.12 in 3.0 mi South 3.5 mph - N/A Rain Light Rain
12:29 PM 37.0 °F - 35.1 °F 93% 30.12 in 1.8 mi Calm Calm - N/A Rain Rain
12:53 PM 37.0 °F - 35.1 °F 93% 30.11 in 2.0 mi Calm Calm - N/A Rain Light Rain
1:04 PM 37.0 °F 34.5 °F 36.0 °F 96% 30.09 in 2.5 mi ESE 3.5 mph - 0.00 in Rain Light Rain
1:22 PM 37.0 °F 33.3 °F 35.1 °F 93% 30.06 in 1.2 mi SE 4.6 mph - 0.00 in Rain Light Rain
1:53 PM 37.0 °F 33.3 °F 37.0 °F 100% 30.02 in 1.5 mi ESE 4.6 mph - 0.01 in Rain Rain
2:01 PM 37.9 °F 34.4 °F 37.0 °F 97% 30.02 in 2.0 mi ESE 4.6 mph - 0.00 in Rain Light Rain
2:23 PM 37.9 °F 33.5 °F 37.0 °F 97% 30.01 in 1.5 mi ESE 5.8 mph - 0.00 in Rain Rain
2:53 PM 37.9 °F 33.5 °F 37.0 °F 97% 30.00 in 2.0 mi East 5.8 mph - N/A Rain Light Rain
3:02 PM 37.9 °F 33.5 °F 37.0 °F 97% 29.99 in 1.2 mi East 5.8 mph - 0.01 in Rain Rain
3:32 PM 37.9 °F 33.5 °F 37.0 °F 97% 29.97 in 2.5 mi East 5.8 mph - 0.02 in Rain Light Rain
3:50 PM 37.4 °F 33.8 °F 37.4 °F 100% 29.97 in 1.5 mi East 4.6 mph - 0.03 in Rain Rain
3:53 PM 37.9 °F 34.4 °F 37.0 °F 97% 29.97 in 1.2 mi East 4.6 mph - 0.03 in Rain Rain
4:53 PM 37.9 °F 32.7 °F 37.0 °F 97% 29.95 in 1.8 mi ESE 6.9 mph - 0.00 in Rain Light Rain
5:02 PM 37.9 °F 33.5 °F 36.0 °F 93% 29.95 in 2.5 mi ESE 5.8 mph - 0.00 in Rain Light Rain
5:28 PM 37.9 °F 34.4 °F 37.0 °F 97% 29.94 in 1.8 mi East 4.6 mph - 0.01 in Rain Rain
5:39 PM 37.9 °F 33.5 °F 37.0 °F 97% 29.93 in 2.0 mi East 5.8 mph - 0.01 in Rain Light Rain
5:53 PM 37.9 °F 33.5 °F 37.0 °F 97% 29.92 in 2.0 mi ENE 5.8 mph - 0.01 in Rain Light Rain
6:00 PM 37.9 °F 33.5 °F 37.0 °F 97% 29.92 in 1.8 mi East 5.8 mph - 0.00 in Rain Light Rain
6:37 PM 37.9 °F 33.5 °F 37.0 °F 97% 29.93 in 3.0 mi East 5.8 mph - 0.01 in Rain Light Rain
6:49 PM 37.4 °F 34.9 °F 37.4 °F 100% 29.93 in 1.8 mi NE 3.5 mph - 0.01 in Rain Light Rain
6:53 PM 37.9 °F - 37.9 °F 100% 29.94 in 1.5 mi Calm Calm - 0.01 in Rain Light Rain
7:37 PM 37.9 °F - 37.9 °F 100% 29.94 in 2.0 mi Calm Calm - 0.08 in Rain Light Rain
7:46 PM 37.9 °F 35.5 °F 37.9 °F 100% 29.93 in 1.5 mi East 3.5 mph - 0.08 in Rain Light Rain
7:53 PM 37.9 °F - 37.0 °F 97% 29.94 in 1.5 mi Calm Calm - 0.08 in Rain Light Rain
8:06 PM 37.9 °F - 37.9 °F 100% 29.94 in 2.5 mi Calm Calm - 0.00 in Rain Light Rain
8:17 PM 37.9 °F - 37.0 °F 97% 29.93 in 1.5 mi Calm Calm - 0.00 in Rain Light Rain
8:25 PM 37.9 °F - 37.9 °F 100% 29.93 in 2.0 mi Calm Calm - 0.00 in Rain Light Rain
8:37 PM 37.9 °F 34.4 °F 37.0 °F 97% 29.93 in 4.0 mi East 4.6 mph - 0.00 in   Overcast
8:53 PM 37.9 °F 32.7 °F 37.9 °F 100% 29.91 in 5.0 mi East 6.9 mph - 0.00 in   Overcast
9:53 PM 39.0 °F 34.8 °F 37.9 °F 96% 29.90 in 9.0 mi East 5.8 mph - N/A   Overcast
10:53 PM 39.0 °F 35.7 °F 37.9 °F 96% 29.86 in 4.0 mi East 4.6 mph - N/A   Overcast
11:13 PM 39.0 °F 35.7 °F 39.0 °F 100% 29.86 in 2.5 mi East 4.6 mph - N/A   Overcast
11:21 PM 39.0 °F 36.8 °F 37.9 °F 96% 29.86 in 3.0 mi East 3.5 mph - N/A   Overcast
11:35 PM 39.0 °F 35.7 °F 37.9 °F 96% 29.87 in 2.0 mi ENE 4.6 mph - N/A   Overcast
11:42 PM 39.0 °F 36.8 °F 37.9 °F 96% 29.87 in 1.8 mi NE 3.5 mph - N/A   Overcast
11:53 PM 39.0 °F 36.8 °F 39.0 °F 100% 29.87 in 1.8 mi NNE 3.5 mph - N/A   Overcast